Regional Weather Roundup
Issued by NWS Portland, ME

Home | Current Version | Previous Version | Text Only | Print | Product List | Glossary On
Versions: 1 2 3 4 5 6 7 8 9 10 11 12 13 14 15 16 17 18 19 20 21 22 23 24 25 26 27 28 29 30 31 32 33 34 35 36 37 38 39 40 41 42 43 44 45 46 47 48 49 50
000
ASUS41 KGYX 252210
RWRGYX
WEATHER ROUNDUP FOR MAINE AND NEW HAMPSHIRE
NATIONAL WEATHER SERVICE GRAY ME
600 PM EDT MON JUL 25 2016

MEZ002-005-006-010-012-015-018-020-021-024-026-027-029-252300-
MAINE

CITY           SKY/WX    TMP DP  RH WIND       PRES   REMARKS
PORTLAND       PTSUNNY   77  57  50 SW6       29.82R
SANFORD          N/A     75  64  68 NE3       29.80F
BAR HARBOR     CLOUDY    73  65  75 SW8       29.84F
WISCASSET      PTSUNNY   77  60  55 SE3       29.82F
ROCKLAND       CLOUDY    71  67  87 S5        29.82F
FRYEBURG       NOT AVBL
LEWISTONAUBURN   N/A     77  59  53 SE6       29.81S
AUGUSTA        CLOUDY    79  55  43 VRB3      29.82S
WATERVILLE     PTSUNNY   79  58  48 S7        29.79F
BANGOR         CLOUDY    80  59  48 S10       29.82S
GREENVILLE       N/A     75  56  51 S6        29.82F
MILLINOCKET    MOSUNNY   80  58  46 CALM      29.81F
HOULTON        CLOUDY    77  64  64 SE3       29.81S
PRESQUE ISLE   CLOUDY    76  65  68 CALM      29.83S
FRENCHVILLE    CLOUDY    74  62  66 CALM      29.84R
CARIBOU        CLOUDY    76  63  64 S5        29.82S
$$

NHZ002-005-008-009-011-012-014-252300-
NEW HAMPSHIRE

CITY           SKY/WX    TMP DP  RH WIND       PRES   REMARKS
PORTSMOUTH     CLOUDY    75  67  77 E6        29.77F
ROCHESTER      PTSUNNY   79  65  62 S5        29.79S
NASHUA         CLOUDY    90  68  48 VRB6      29.76S HX  94
MANCHESTER     CLOUDY    85  67  54 E8        29.76R
CONCORD        CLOUDY    86  66  51 E3        29.78R
LACONIA        PTSUNNY   82  69  64 CALM      29.80R
PLYMOUTH       CLOUDY    82  68  63 CALM      29.79S
BERLIN         PTSUNNY   74  68  81 CALM      29.83S
WHITEFIELD     CLOUDY    77  67  71 CALM      29.83R
JAFFREY        MOSUNNY   86  64  47 S9G18     29.82S
KEENE          MOSUNNY   88  67  49 W7        29.81R HX  91
LEBANON        CLOUDY    82  72  71 S3        29.80R
MT WASHINGTON  FOG       57  57 100 W17         N/A  VSB 3/16
$$

VTZ005-007-008-252300-
VERMONT

CITY           SKY/WX    TMP DP  RH WIND       PRES   REMARKS
ST JOHNSBURY     N/A     76  70  82 MISG      29.78F
MONTPELIER     CLOUDY    74  69  85 S5        29.86F
BURLINGTON     PTSUNNY   79  69  71 S7        29.75F
$$

MAZ007-012-024-CTZ003-RIZ002-NYZ038-NYZ072-252300-
SOUTHERN NEW ENGLAND AND NY

CITY           SKY/WX    TMP DP  RH WIND       PRES   REMARKS
BOSTON         CLOUDY    86  66  51 S17       29.77S
WORCESTER      MOSUNNY   84  65  52 S15       29.83F
NANTUCKET      PTSUNNY   73  70  90 S13       29.87F
PROVIDENCE     CLOUDY    80  70  71 S12       29.81F
HARTFORD       PTSUNNY   87  69  54 SW9       29.78S HX  91
ALBANY         LGT RAIN  80  73  79 S7        29.82F
NEW YORK CITY  TSTM      79  76  90 S5        29.86R FOG
$$

ANZ081-ANZ082-ANZ150-NHZ014-MEZ023>029-252300-
COASTAL MARINE OBSERVATIONS

STATION/POSITION TIME  TEMP    WIND        PRES    WAVE
                       AIR SEA DIR/SP/G            HT/PER
                 (UTC) (F)     (DEG/KT/KT) (MB)    (FT/S)
MOUNT DESERT ROC 2200   65     150/ 11/ 11 1010.6F
MATINICUS ROCK   2200   66     140/ 10/ 10 1009.5F
ISLE OF SHOALS   2200   70      30/  8/  9 1008.1F
JEFFREYS LEDGE   2108      69                N/A     1/ 7
CASHES LEDGE BUO 2150   70 70  150/ 10/ 10 1009.6F   2/ 7
GEORGES BANK BUO 2050   68 66              1013.4    2/ 6
$$

.............KEY..............
   WCI - WIND CHILL
   TC  - TEMPERATURE IN CELSIUS
   VSB - VISIBILITY IN MILES
   HX  - HEAT INDEX
   FAIR- INDICATES FEW OR NO CLOUDS BELOW 12,000 FT, WITH NO
         SIGNIFICANT WEATHER AND/OR OBSTRUCTIONS TO VISIBILITY.






USA.gov is the U.S. government's official web portal to all federal, state and local government web resources and services.